Location: Peyton Hall Observatory
(40.3466°N, 74.6516°W)
Time: 08:46:45
(UTC-05:00)

ISS - All Passes

Search period start: 19 December 2014 00:00
Search period end: 29 December 2014 00:00
Orbit: 404 x 415 km, 51.6° (Epoch: 19 December)

Date Brightness Start Highest point End Pass type
(mag) Time Alt. Az. Time Alt. Az. Time Alt. Az.
19 Dec - 13:08:35 10° S 13:11:14 22° SE 13:13:53 10° E daylight
19 Dec - 14:44:31 10° WSW 14:47:39 40° NNW 14:50:48 10° NE daylight
19 Dec - 16:23:09 10° NW 16:24:55 14° NNW 16:26:42 10° NNE daylight
19 Dec - 18:01:00 10° NNW 18:02:36 13° N 18:04:13 10° NE visible
19 Dec - 19:36:54 10° NW 19:39:57 34° NNE 19:42:58 10° E visible
19 Dec - 21:13:37 10° WNW 21:16:27 28° SW 21:19:17 10° SSE night (unlit)
20 Dec - 12:19:17 10° SSE 12:20:42 12° SE 12:22:06 10° ESE daylight
20 Dec - 13:53:34 10° WSW 13:56:52 71° NW 14:00:10 10° NE daylight
20 Dec - 15:31:41 10° WNW 15:33:55 17° NNW 15:36:09 10° NNE daylight
20 Dec - 17:10:15 10° NNW 17:11:33 12° N 17:12:51 10° NNE visible
20 Dec - 18:46:21 10° NNW 18:49:03 23° NNE 18:51:45 10° E visible
20 Dec - 20:22:36 10° WNW 20:25:49 53° SW 20:29:00 10° SE night (unlit)
21 Dec - 13:02:50 10° SW 13:06:06 61° SE 13:09:21 10° ENE daylight
21 Dec - 14:40:15 10° WNW 14:42:54 22° NNW 14:45:33 10° NNE daylight
21 Dec - 16:19:09 10° NNW 16:20:25 12° N 16:21:42 10° NNE daylight
21 Dec - 17:55:45 10° NNW 17:58:02 17° NNE 18:00:19 10° ENE visible
21 Dec - 19:31:46 10° NW 19:35:03 79° NE 19:38:18 10° SE visible
21 Dec - 21:10:24 10° WSW 21:11:09 11° SW 21:11:54 10° SW night (unlit)
22 Dec - 12:12:23 10° SSW 12:15:21 31° SE 12:18:19 10° ENE daylight
22 Dec - 13:48:53 10° W 13:51:54 32° NNW 13:54:54 10° NE daylight
22 Dec - 15:27:42 10° NW 15:29:15 13° N 15:30:49 10° NNE daylight
22 Dec - 17:05:05 10° NNW 17:06:55 14° NNE 17:08:46 10° NE visible
22 Dec - 18:40:59 10° NW 18:44:09 44° NNE 18:47:18 10° ESE visible
22 Dec - 20:18:02 10° W 20:20:31 20° SW 20:22:58 10° S night (unlit)
23 Dec - 11:22:23 10° S 11:24:37 17° SE 11:26:50 10° E daylight
23 Dec - 12:57:40 10° WSW 13:00:54 52° NNW 13:04:09 10° NE daylight
23 Dec - 14:36:04 10° NW 14:38:04 15° NNW 14:40:03 10° NNE daylight
23 Dec - 16:14:16 10° NNW 16:15:43 12° N 16:17:09 10° NNE daylight
23 Dec - 17:50:14 10° NW 17:53:08 28° NNE 17:56:00 10° E visible
23 Dec - 19:26:41 10° WNW 19:29:45 37° SW 19:32:47 10° SSE visible
24 Dec - 12:06:38 10° SW 12:09:56 86° SE 12:13:14 10° NE daylight
24 Dec - 13:44:24 10° WNW 13:46:51 19° NNW 13:49:18 10° NNE daylight
24 Dec - 15:23:11 10° NNW 15:24:26 12° N 15:25:41 10° NNE daylight
24 Dec - 16:59:28 10° NNW 17:01:59 20° NNE 17:04:29 10° ENE daylight
24 Dec - 18:35:34 10° NW 18:38:51 74° SW 18:42:06 10° SE visible
25 Dec - 11:15:49 10° SSW 11:18:59 43° SE 11:22:08 10° ENE daylight
25 Dec - 12:52:48 10° W 12:55:39 26° NNW 12:58:29 10° NE daylight
25 Dec - 14:31:42 10° NNW 14:33:05 12° N 14:34:29 10° NNE daylight
25 Dec - 16:08:39 10° NNW 16:10:43 16° NNE 16:12:48 10° NE daylight
25 Dec - 17:44:35 10° NW 17:47:50 59° NE 17:51:03 10° ESE visible
25 Dec - 19:22:09 10° W 19:24:03 15° SW 19:25:56 10° SSW visible
26 Dec - 10:25:22 10° S 10:28:03 23° SE 10:30:44 10° E daylight
26 Dec - 12:01:19 10° WSW 12:04:27 40° NNW 12:07:36 10° NE daylight
26 Dec - 13:39:56 10° NW 13:41:43 14° NNW 13:43:29 10° NNE daylight
26 Dec - 15:17:44 10° NNW 15:19:22 13° N 15:21:00 10° NE daylight
26 Dec - 16:53:37 10° NW 16:56:41 34° NNE 16:59:42 10° E daylight
26 Dec - 18:30:19 10° WNW 18:33:09 27° SW 18:35:58 10° SSE visible
27 Dec - 09:35:41 10° SSE 09:37:08 12° SE 09:38:35 10° ESE daylight
27 Dec - 11:09:59 10° WSW 11:13:17 70° NW 11:16:35 10° NE daylight
27 Dec - 12:48:05 10° WNW 12:50:19 17° NNW 12:52:32 10° NNE daylight
27 Dec - 14:26:36 10° NNW 14:27:55 12° N 14:29:14 10° NNE daylight
27 Dec - 16:02:40 10° NNW 16:05:24 23° NNE 16:08:06 10° E daylight
27 Dec - 17:38:55 10° WNW 17:42:08 53° SW 17:45:19 10° SE visible
28 Dec - 10:18:52 10° SW 10:22:08 61° SE 10:25:24 10° ENE daylight
28 Dec - 11:56:15 10° WNW 11:58:55 22° NNW 12:01:34 10° NNE daylight
28 Dec - 13:35:07 10° NNW 13:36:25 12° N 13:37:42 10° NNE daylight
28 Dec - 15:11:42 10° NNW 15:14:00 17° NNE 15:16:18 10° ENE daylight
28 Dec - 16:47:41 10° NW 16:50:59 80° NE 16:54:15 10° SE daylight
28 Dec - 18:26:19 10° WSW 18:27:04 11° SW 18:27:49 10° SW visible
